Regional Weather Roundup
Issued by NWS

Home | Current Version | Previous Version | Graphics & Text | Print | Product List | Glossary On
Versions: 1 2 3 4 5 6 7 8 9 10 11 12 13 14 15 16 17 18 19 20 21 22 23 24 25 26 27 28 29 30 31 32 33 34 35 36 37 38 39 40 41 42 43 44 45 46 47 48 49 50
000
ASUS43 KOAX 020210
RWRNE
WEATHER ROUNDUP FOR NEBRASKA
NATIONAL WEATHER SERVICE OMAHA NE
900 PM CDT MON JUN 01 2015

NOTES: SATELLITE DATA IS BEING USED TO AUGMENT CLOUD COVER ABOVE
       12000 FEET.
       "FAIR" INDICATES FEW OR NO CLOUDS BELOW 12,000 FEET WITH NO
       SIGNIFICANT WEATHER AND/OR OBSTRUCTIONS TO VISIBILITY.

  * THESE STATIONS DO NOT REPORT WEATHER SUCH AS RAIN...SNOW OR FOG.

NEZ001>004-019>022-054>056-020300-
NEBRASKA PANHANDLE

CITY           SKY/WX    TMP DP  RH WIND       PRES   REMARKS
SCOTTSBLUFF    LGT RAIN  68  55  63 S13       29.95R
ALLIANCE       CLOUDY    64  56  75 E13       29.93F
CHADRON        CLOUDY    73  51  46 W9        29.87R
KIMBALL          N/A    N/A N/A N/A MISG        N/A
SIDNEY         TSTM      58  54  86 W9        30.05R
$$

NEZ057>060-069>072-079>082-020300-
SOUTHWEST NEBRASKA

CITY           SKY/WX    TMP DP  RH WIND       PRES   REMARKS
NORTH PLATTE   MOCLDY    69  61  75 SE10      29.97R
IMPERIAL       MOCLDY    75  60  59 SE17      29.94R
LEXINGTON      CLEAR     69  61  76 SE13      29.99S
MCCOOK         CLEAR     74  62  66 SE12      29.97R
OGALLALA       CLOUDY    74  62  64 E8        29.94R THUNDER
$$

NEZ005>010-023>029-035>040-094-020300-
NORTH CENTRAL NEBRASKA

CITY           SKY/WX    TMP DP  RH WIND       PRES   REMARKS
VALENTINE      MOCLDY    73  60  63 S14       29.92R
AINSWORTH      PTCLDY    70  59  68 S14       29.95S
BROKEN BOW     CLEAR     69  59  70 SE12      29.99S
O`NEILL        CLEAR     72  58  61 S12       29.97F
ORD            CLOUDY    70  57  63 S12       29.98F
THEDFORD       CLOUDY    72  62  71 SE13G20   29.97R
$$

NEZ041-046>049-061>064-073>077-083>087-020300-
SOUTH CENTRAL NEBRASKA

CITY           SKY/WX    TMP DP  RH WIND       PRES   REMARKS
GRAND ISLAND   MOCLDY    70  57  63 S13       30.02S
AURORA         PTCLDY    71  56  59 S12       30.02S
HASTINGS       CLEAR     69  58  67 S10       30.02F
HEBRON         CLOUDY    70  55  59 SE7       30.05R
HOLDREGE       CLEAR     67  58  73 SE14      30.01S
KEARNEY *      CLEAR     66  57  72 SE13      30.02S
YORK           CLEAR     72  55  56 S12       30.03S
$$

NEZ011>018-030>034-042>045-020300-
NORTHEAST NEBRASKA

CITY           SKY/WX    TMP DP  RH WIND       PRES   REMARKS
NORFOLK        CLEAR     71  52  50 SE13      30.01F
ALBION         CLEAR     70  53  54 S9        30.00S
BLAIR          CLEAR     68  49  50 SE8       30.07S
COLUMBUS *     CLEAR     70  52  52 SE10G16   30.04S
FREMONT        CLEAR     69  52  54 SE9       30.06S
TEKAMAH        CLEAR     70  51  51 S9        30.05S
WAYNE          CLEAR     69  52  54 SE14      30.02F
$$

NEZ050>053-065>068-078-088>093-020300-
SOUTHEAST NEBRASKA

CITY           SKY/WX    TMP DP  RH WIND       PRES   REMARKS
LINCOLN        CLEAR     69  53  56 SE10      30.05F
OMAHA EPPLEY   PTCLDY    69  51  52 SE12      30.06S
BEATRICE       CLEAR     67  54  62 S6        30.06S
FALLS CITY     CLEAR     63  54  72 SE12      30.08S
NEBRASKA CITY  CLEAR     65  47  52 SE7       30.08S
PLATTSMOUTH    CLEAR     66  51  56 SE7       30.07S
$$

NEZ044-045-051>053-067-020300-
OMAHA AREA

CITY           SKY/WX    TMP DP  RH WIND       PRES   REMARKS
OMAHA EPPLEY   PTCLDY    69  51  52 SE12      30.06S
BLAIR          CLEAR     68  49  50 SE8       30.07S
FREMONT        CLEAR     69  52  54 SE9       30.06S
MILLARD        CLEAR     68  54  60 SE6       30.06S
OFFUTT AFB     CLEAR     65  53  64 SE6       30.06S
PLATTSMOUTH    CLEAR     66  51  56 SE7       30.07S
WAHOO          FAIR      68  53  57 SE8       30.05F
$$


USA.gov is the U.S. government's official web portal to all federal, state and local government web resources and services.